Retour au catalogue

THORAD AGENA D DEB

ActifPO
NORAD 4935·DEBRIS·🇺🇸 United States

Lancé Apr 8, 1970 depuis Vandenberg Space Force Base

Loading…

Prochains Passages

TLE

Source: Space-Track
1 04935U 70025GB  26229.81305312  .00000447  00000-0  41483-3 0  9997
2 04935  99.8622   1.0533 0063548 205.9608 312.7338 13.87372432825582

Suivez THORAD AGENA D DEB en temps réel avec AllMySat

Download on the App Store